Location: Newark
(48.2308°N, 120.8549°W)
Time: 17:24:29
(UTC+00:00)

S-56A Canister/Altair - Visible Passes

Search period start: 06 June 2020 00:00
Search period end: 16 June 2020 00:00
Orbit: 633 x 2499 km, 38.9° (Epoch: 05 June)

Date Brightness Start Highest point End Pass type
(mag) Time Alt. Az. Time Alt. Az. Time Alt. Az.
06 Jun 9.3 09:59:15 12° SSE 10:00:39 13° SE 10:03:02 10° ESE visible
07 Jun 9.5 09:28:08 10° SE 09:28:13 10° SE 09:28:20 10° SE visible
08 Jun 8.8 10:54:25 12° SW 10:58:03 26° SSE 11:03:02 10° ESE visible
09 Jun 8.7 10:23:17 16° SSW 10:25:34 23° SSE 10:29:55 10° ESE visible
10 Jun 8.7 09:52:09 19° S 09:53:06 20° SSE 09:56:51 10° ESE visible
11 Jun 8.9 09:21:01 17° SSE 09:21:01 17° SSE 09:23:50 10° ESE visible
11 Jun 8.5 11:19:10 10° WSW 11:23:21 31° S 11:28:37 10° ESE visible
12 Jun 9.3 08:49:53 13° SE 08:49:53 13° SE 08:50:50 10° ESE visible
12 Jun 8.4 10:47:18 12° SW 10:50:50 29° S 10:55:39 10° ESE visible
13 Jun 8.3 10:16:11 19° SSW 10:18:21 27° S 10:22:44 10° ESE visible
14 Jun 8.2 09:45:05 24° S 09:45:52 25° S 09:49:54 10° ESE visible
15 Jun 8.4 09:14:01 23° SSE 09:14:01 23° SSE 09:17:09 10° ESE visible
15 Jun 8.5 11:12:27 10° WSW 11:16:15 26° S 11:20:47 10° SE visible
